Location: Albuquerque Trailhead
(34.7934°N, 106.3736°W)
Time: 02:17:29
(UTC+00:00)

Cosmos 1766 Rocket - Pass Details

Date: 20 June 2021
Orbit: 604 x 633 km, 82.5° (Epoch: 27 July)

Event Time Altitude Azimuth Distance (km) Brightness Sun altitude
Exits shadow 09:27:47 50° 145° (SE) 804 3.9 -22.9°
Maximum altitude 09:28:41 63° 94° (E) 706 3.9 -22.8°
Drops below altitude 10° 09:33:06 10° 14° (NNE) 2,019 7.1 -22.3°
Sets 09:35:22 0° 11° (N) 2,932 8.1 -22.0°
